SVA42 KLAX-OEJN

Flight info

Callsign SVA42
Flight time N/A
Altitude 29000
Route DOTSS2 CLEEE DCT PKE DCT HIDAT DCT KA27O DCT KA30Q DCT KA33U DCT KK39A DCT KK42C DCT KK45E DCT KK48G DCT STL/N0492F310 DCT DORET Q29 JHW DCT SYR DCT HULTN N511B ALLRY/M085F330 DCT 51N050W 53N040W 54N030W 54N020W DCT DOGAL/N0489F330 DCT BEXET DCT LESLU/N0484F350 DCT LIZAD DCT JSY DCT TURDU DCT TADUP DCT TEPRI UN491 POGZI DCT GELTA DCT LUVAL DCT BEGAR DCT TRA DCT GAMSA N871 MADEB N606 OTRES T307 DIRAB DCT PEVAL DCT EBITA DCT SPL DCT VAKSU DCT DIMIS DCT SALUN/N0484F370 N705 BOPIX N710 TAKRI P751 LXR M999 MUVOL
Aircraft B77W/H-SDE1E2E3FGHIJ2J3J4J5M1RWXY/LB1D1

Departure

Time 2026-05-04 16:37
Airport Los Angeles International Airport (KLAX)

Arrival

Time N/A
Airport King Abdulaziz International Airport (OEJN)
Time Latitude Longitude Altitude Speed Heading
2026-05-04 16:15 33.94177 -118.41093 97 ft 0 kts 83°
2026-05-04 16:28 33.94171 -118.41157 95 ft 4 kts 83°
2026-05-04 16:29 33.94102 -118.41196 96 ft 1 kts 353°
2026-05-04 16:31 33.94142 -118.41202 97 ft 13 kts 353°
2026-05-04 16:32 33.94488 -118.41253 98 ft 16 kts 353°
2026-05-04 16:33 33.94709 -118.41287 98 ft 16 kts 352°
2026-05-04 16:33 33.94806 -118.41157 101 ft 12 kts 83°
2026-05-04 16:34 33.94826 -118.40953 102 ft 12 kts 83°
2026-05-04 16:34 33.94836 -118.40850 99 ft 12 kts 83°
2026-05-04 16:35 33.94870 -118.40532 99 ft 16 kts 83°
2026-05-04 16:35 33.94914 -118.40101 100 ft 18 kts 83°
2026-05-04 16:36 33.94935 -118.39955 98 ft 18 kts 62°
2026-05-04 16:36 33.95031 -118.40061 99 ft 22 kts 263°
2026-05-04 16:37 33.94866 -118.41666 102 ft 171 kts 262°
2026-05-04 16:37 33.94720 -118.43257 501 ft 199 kts 263°
2026-05-04 16:37 33.94397 -118.46510 2303 ft 181 kts 261°
2026-05-04 16:38 33.94239 -118.49699 2647 ft 206 kts 268°
2026-05-04 16:39 33.93902 -118.55164 3822 ft 230 kts 264°
2026-05-04 16:39 33.93584 -118.59114 4736 ft 239 kts 265°
2026-05-04 16:40 33.92587 -118.62991 5272 ft 263 kts 225°
2026-05-04 16:40 33.89022 -118.64170 5996 ft 285 kts 178°
2026-05-04 16:41 33.85024 -118.63819 7085 ft 290 kts 175°
2026-05-04 16:41 33.79684 -118.60211 8562 ft 301 kts 148°
2026-05-04 16:42 33.74465 -118.55937 10257 ft 308 kts 149°
2026-05-04 16:43 33.70728 -118.52865 10530 ft 343 kts 143°
2026-05-04 16:43 33.68310 -118.47616 10778 ft 382 kts 110°
2026-05-04 16:43 33.67466 -118.44545 11148 ft 392 kts 111°
2026-05-04 16:44 33.64221 -118.31757 13136 ft 415 kts 93°
2026-05-04 16:45 33.64357 -118.24687 14081 ft 428 kts 91°
2026-05-04 16:46 33.64466 -118.13800 15639 ft 444 kts 93°
2026-05-04 16:46 33.64462 -118.06286 16671 ft 456 kts 94°
2026-05-04 16:47 33.64450 -117.98584 17647 ft 466 kts 94°
2026-05-04 16:47 33.64435 -117.90726 18545 ft 476 kts 94°
2026-05-04 16:48 33.64466 -117.78709 19817 ft 488 kts 89°
2026-05-04 16:48 33.65017 -117.74647 20157 ft 498 kts 80°
2026-05-04 16:49 33.66769 -117.66501 20998 ft 509 kts 78°
2026-05-04 16:49 33.68512 -117.58204 21848 ft 516 kts 80°
2026-05-04 16:50 33.70151 -117.49763 22646 ft 523 kts 81°
2026-05-04 16:50 33.71491 -117.42640 23087 ft 529 kts 82°
2026-05-04 16:51 33.73132 -117.33963 23813 ft 534 kts 82°
2026-05-04 16:51 33.73959 -117.29600 24120 ft 537 kts 82°
2026-05-04 16:51 33.75376 -117.20762 24691 ft 534 kts 94°
2026-05-04 16:52 33.75051 -117.11964 25283 ft 530 kts 101°
2026-05-04 16:52 33.74828 -117.07520 25668 ft 534 kts 100°
2026-05-04 16:53 33.74608 -116.98533 26227 ft 541 kts 98°
2026-05-04 16:53 33.74333 -116.84864 27020 ft 548 kts 99°
2026-05-04 16:54 33.74226 -116.80281 27314 ft 550 kts 99°
2026-05-04 16:55 33.73779 -116.61781 28356 ft 558 kts 99°
2026-05-04 16:55 33.73559 -116.52462 28926 ft 559 kts 99°
2026-05-04 16:56 33.72939 -116.28925 28942 ft 564 kts 99°
2026-05-04 16:57 33.72553 -116.14823 28953 ft 562 kts 99°
2026-05-04 16:58 33.73746 -116.00761 28974 ft 579 kts 75°
2026-05-04 16:58 33.75121 -115.96175 28912 ft 582 kts 73°
2026-05-04 17:00 33.83086 -115.68645 28938 ft 582 kts 76°
2026-05-04 17:01 33.89398 -115.45478 28930 ft 585 kts 75°
2026-05-04 17:02 33.94466 -115.26847 28909 ft 583 kts 75°
2026-05-04 17:03 33.98249 -115.12898 28922 ft 585 kts 75°
2026-05-04 17:03 34.02011 -114.98894 28890 ft 585 kts 75°
2026-05-04 17:04 34.06992 -114.80270 28912 ft 585 kts 75°
2026-05-04 17:05 34.12009 -114.61577 28884 ft 585 kts 74°
2026-05-04 17:06 34.15961 -114.47610 28894 ft 585 kts 73°
2026-05-04 17:07 34.19421 -114.35277 28887 ft 585 kts 74°
2026-05-04 17:07 34.22445 -114.24382 28891 ft 585 kts 74°
2026-05-04 17:08 34.26310 -114.10392 28891 ft 585 kts 74°
2026-05-04 17:09 34.28877 -114.01047 28882 ft 585 kts 73°
2026-05-04 17:09 34.31430 -113.91760 28889 ft 586 kts 73°
2026-05-04 17:10 34.37816 -113.68341 28864 ft 586 kts 73°
2026-05-04 17:11 34.40355 -113.58973 28875 ft 586 kts 74°
2026-05-04 17:12 34.44161 -113.44878 28864 ft 586 kts 74°
2026-05-04 17:13 34.50446 -113.21435 28880 ft 586 kts 74°
2026-05-04 17:14 34.55261 -113.02625 28882 ft 583 kts 81°
2026-05-04 17:14 34.56230 -112.92919 28876 ft 577 kts 92°
2026-05-04 17:15 34.56201 -112.88064 28880 ft 573 kts 99°
2026-05-04 17:16 34.54780 -112.68794 28878 ft 574 kts 100°
2026-05-04 17:17 34.53467 -112.49414 29008 ft 577 kts 100°
2026-05-04 17:18 34.52138 -112.30077 28999 ft 576 kts 99°
2026-05-04 17:19 34.50769 -112.10682 28929 ft 577 kts 99°
2026-05-04 17:19 34.50696 -112.00900 28891 ft 584 kts 87°
2026-05-04 17:20 34.52106 -111.91179 28909 ft 588 kts 75°
2026-05-04 17:20 34.55863 -111.77078 28940 ft 587 kts 72°
2026-05-04 17:21 34.60785 -111.58163 28948 ft 587 kts 73°
2026-05-04 17:22 34.63176 -111.48754 28937 ft 586 kts 73°
2026-05-04 17:23 34.67979 -111.29814 28947 ft 586 kts 73°
2026-05-04 17:24 34.71568 -111.15594 28942 ft 586 kts 73°
2026-05-04 17:25 34.76317 -110.96646 28957 ft 585 kts 73°
2026-05-04 17:26 34.81027 -110.77711 28998 ft 586 kts 73°
2026-05-04 17:27 34.86895 -110.53942 28899 ft 586 kts 73°
2026-05-04 17:28 34.91540 -110.34954 28905 ft 587 kts 73°
2026-05-04 17:29 34.98474 -110.06346 28892 ft 586 kts 73°
2026-05-04 17:31 35.02584 -109.82122 28890 ft 585 kts 82°
2026-05-04 17:32 35.05939 -109.57636 28886 ft 585 kts 81°
2026-05-04 17:33 35.08642 -109.38092 28874 ft 586 kts 81°
2026-05-04 17:34 35.11317 -109.18432 28863 ft 586 kts 81°
2026-05-04 17:35 35.14611 -108.93878 28839 ft 586 kts 81°
2026-05-04 17:36 35.15917 -108.84034 28834 ft 586 kts 81°
2026-05-04 17:36 35.17213 -108.74191 28818 ft 587 kts 81°
2026-05-04 17:37 35.18502 -108.64344 28810 ft 586 kts 81°
2026-05-04 17:37 35.19774 -108.54549 28829 ft 586 kts 81°
2026-05-04 17:38 35.21051 -108.44702 28831 ft 586 kts 81°
2026-05-04 17:38 35.22103 -108.36511 28833 ft 586 kts 81°
2026-05-04 17:39 35.23985 -108.21741 28919 ft 585 kts 81°
2026-05-04 17:39 35.25231 -108.11893 28989 ft 584 kts 81°
2026-05-04 17:40 35.26456 -108.02136 29044 ft 584 kts 82°
2026-05-04 17:40 35.27679 -107.92315 29092 ft 584 kts 81°
2026-05-04 17:41 35.28900 -107.82479 29071 ft 584 kts 81°
2026-05-04 17:41 35.29508 -107.77556 28850 ft 585 kts 81°
2026-05-04 17:41 35.30113 -107.72625 28854 ft 586 kts 81°
2026-05-04 17:42 35.31313 -107.62797 28847 ft 586 kts 81°
2026-05-04 17:42 35.32507 -107.52929 28851 ft 586 kts 81°
2026-05-04 17:43 35.33701 -107.43052 28861 ft 586 kts 82°
2026-05-04 17:43 35.34884 -107.33171 28868 ft 585 kts 81°
2026-05-04 17:44 35.36055 -107.23304 28863 ft 585 kts 82°
2026-05-04 17:44 35.37212 -107.13495 28870 ft 585 kts 82°
2026-05-04 17:45 35.38368 -107.03623 28897 ft 585 kts 81°
2026-05-04 17:45 35.39517 -106.93746 28881 ft 586 kts 81°
2026-05-04 17:46 35.40659 -106.83853 28884 ft 586 kts 82°
2026-05-04 17:46 35.41793 -106.73949 28878 ft 586 kts 82°
2026-05-04 17:47 35.42918 -106.64052 28873 ft 586 kts 81°
2026-05-04 17:47 35.44029 -106.54218 28863 ft 586 kts 81°
2026-05-04 17:48 35.45139 -106.44310 28897 ft 585 kts 81°
2026-05-04 17:48 35.46242 -106.34387 28937 ft 585 kts 81°
2026-05-04 17:49 35.47328 -106.24550 29002 ft 585 kts 81°
2026-05-04 17:49 35.48413 -106.14639 29045 ft 585 kts 82°
2026-05-04 17:50 35.49491 -106.04726 29047 ft 585 kts 82°
2026-05-04 17:50 35.50865 -105.94909 29026 ft 582 kts 75°
2026-05-04 17:51 35.51809 -105.90062 28868 ft 582 kts 74°
2026-05-04 17:51 35.52774 -105.85236 28866 ft 582 kts 74°
2026-05-04 17:51 35.54687 -105.75628 28850 ft 582 kts 74°
2026-05-04 17:52 35.56563 -105.65936 28859 ft 583 kts 75°
2026-05-04 17:52 35.58400 -105.56238 28834 ft 581 kts 75°
2026-05-04 17:53 35.60204 -105.46655 28878 ft 579 kts 75°
2026-05-04 17:53 35.62029 -105.37020 28966 ft 577 kts 75°
2026-05-04 17:54 35.63836 -105.27405 29049 ft 577 kts 75°
2026-05-04 17:54 35.65634 -105.17776 29043 ft 578 kts 75°
2026-05-04 17:55 35.67429 -105.08114 29037 ft 579 kts 75°
2026-05-04 17:55 35.69206 -104.98499 28764 ft 580 kts 75°
2026-05-04 17:56 35.70993 -104.88802 28773 ft 580 kts 75°
2026-05-04 17:56 35.72770 -104.79106 28763 ft 581 kts 75°
2026-05-04 17:57 35.74540 -104.69395 28751 ft 581 kts 75°
2026-05-04 17:57 35.76303 -104.59678 28752 ft 580 kts 75°
2026-05-04 17:58 35.78044 -104.50045 28754 ft 579 kts 75°
2026-05-04 17:58 35.79789 -104.40324 28752 ft 579 kts 75°
2026-05-04 17:59 35.81523 -104.30632 28747 ft 579 kts 75°
2026-05-04 18:00 35.84108 -104.16083 28768 ft 579 kts 75°
2026-05-04 18:00 35.85822 -104.06385 28769 ft 579 kts 75°
2026-05-04 18:01 35.87521 -103.96727 28768 ft 580 kts 75°
2026-05-04 18:01 35.89222 -103.87000 28759 ft 580 kts 75°
2026-05-04 18:02 35.91760 -103.72391 28771 ft 581 kts 75°
2026-05-04 18:02 35.93446 -103.62634 28762 ft 581 kts 75°
2026-05-04 18:03 35.95124 -103.52860 28765 ft 581 kts 75°
2026-05-04 18:03 35.96794 -103.43091 28758 ft 583 kts 75°
2026-05-04 18:04 35.98452 -103.33337 28760 ft 583 kts 75°
2026-05-04 18:05 36.00939 -103.18618 28755 ft 583 kts 75°
2026-05-04 18:05 36.02580 -103.08835 28760 ft 584 kts 75°
2026-05-04 18:06 36.05041 -102.94076 28763 ft 583 kts 75°
2026-05-04 18:06 36.06659 -102.84303 28792 ft 583 kts 75°
2026-05-04 18:07 36.08277 -102.74477 28833 ft 582 kts 75°
2026-05-04 18:07 36.09884 -102.64673 28859 ft 581 kts 75°
2026-05-04 18:08 36.11481 -102.54876 28868 ft 581 kts 75°
2026-05-04 18:08 36.13068 -102.45082 28844 ft 580 kts 75°
2026-05-04 18:09 36.16208 -102.25555 28759 ft 580 kts 75°
2026-05-04 18:10 36.17771 -102.15750 28700 ft 580 kts 76°
2026-05-04 18:10 36.19327 -102.05937 28703 ft 580 kts 76°
2026-05-04 18:11 36.20874 -101.96127 28697 ft 580 kts 76°
2026-05-04 18:11 36.22414 -101.86309 28688 ft 580 kts 76°
2026-05-04 18:12 36.23943 -101.76498 28684 ft 580 kts 76°
2026-05-04 18:12 36.25465 -101.66690 28704 ft 579 kts 76°
2026-05-04 18:13 36.26966 -101.56949 28677 ft 578 kts 76°
2026-05-04 18:14 36.29212 -101.42277 28693 ft 575 kts 76°
2026-05-04 18:14 36.30691 -101.32546 28687 ft 574 kts 76°
2026-05-04 18:15 36.33611 -101.13175 28712 ft 573 kts 76°
2026-05-04 18:16 36.35062 -101.03462 28733 ft 572 kts 76°
2026-05-04 18:16 36.36505 -100.93750 28766 ft 572 kts 76°
2026-05-04 18:17 36.38656 -100.79164 28788 ft 573 kts 76°
2026-05-04 18:18 36.40792 -100.64551 28786 ft 574 kts 76°
2026-05-04 18:18 36.42201 -100.54844 28787 ft 574 kts 76°
2026-05-04 18:19 36.44307 -100.40213 28708 ft 572 kts 76°
2026-05-04 18:19 36.45696 -100.30499 28678 ft 571 kts 76°
2026-05-04 18:20 36.47074 -100.20797 28681 ft 570 kts 76°
2026-05-04 18:20 36.48442 -100.11106 28684 ft 569 kts 76°
2026-05-04 18:21 36.49821 -100.01424 28698 ft 567 kts 74°
2026-05-04 18:21 36.51916 -99.92109 28710 ft 561 kts 66°
2026-05-04 18:22 36.54380 -99.82905 28726 ft 561 kts 66°
2026-05-04 18:22 36.56817 -99.73668 28667 ft 562 kts 67°
2026-05-04 18:23 36.59207 -99.64397 28653 ft 563 kts 68°
2026-05-04 18:23 36.61577 -99.55106 28672 ft 563 kts 67°
2026-05-04 18:24 36.63944 -99.45811 28688 ft 563 kts 67°
2026-05-04 18:24 36.65905 -99.38089 28662 ft 562 kts 67°
2026-05-04 18:25 36.68634 -99.27317 28651 ft 560 kts 67°
2026-05-04 18:25 36.70967 -99.18068 28658 ft 558 kts 67°
2026-05-04 18:26 36.73288 -99.08837 28670 ft 558 kts 67°
2026-05-04 18:26 36.75211 -99.01162 28689 ft 557 kts 67°
2026-05-04 18:27 36.77514 -98.91934 28700 ft 557 kts 67°
2026-05-04 18:27 36.79814 -98.82687 28718 ft 557 kts 67°
2026-05-04 18:28 36.82105 -98.73443 28735 ft 557 kts 67°
2026-05-04 18:28 36.84386 -98.64206 28734 ft 557 kts 68°
2026-05-04 18:29 36.86655 -98.54974 28710 ft 555 kts 68°
2026-05-04 18:29 36.88898 -98.45820 28695 ft 553 kts 68°
2026-05-04 18:30 36.92263 -98.32029 28693 ft 552 kts 68°
2026-05-04 18:31 36.94497 -98.22826 28694 ft 552 kts 68°
2026-05-04 18:31 36.96716 -98.13646 28705 ft 552 kts 68°
2026-05-04 18:32 36.98933 -98.04449 28713 ft 551 kts 68°
2026-05-04 18:32 37.01156 -97.95334 28721 ft 550 kts 67°
2026-05-04 18:33 37.03523 -97.86232 28710 ft 549 kts 66°
2026-05-04 18:33 37.05909 -97.77146 28693 ft 548 kts 66°
2026-05-04 18:34 37.08253 -97.68101 28687 ft 548 kts 67°
2026-05-04 18:34 37.10585 -97.59007 28709 ft 549 kts 67°
2026-05-04 18:35 37.12908 -97.49901 28700 ft 549 kts 67°
2026-05-04 18:35 37.15230 -97.40770 28715 ft 548 kts 67°
2026-05-04 18:36 37.17543 -97.31652 28734 ft 548 kts 67°
2026-05-04 18:36 37.19846 -97.22537 28759 ft 548 kts 67°
2026-05-04 18:37 37.22131 -97.13466 28771 ft 548 kts 67°
2026-05-04 18:37 37.24428 -97.04310 28774 ft 548 kts 67°
2026-05-04 18:38 37.26698 -96.95228 28729 ft 548 kts 67°
2026-05-04 18:38 37.28977 -96.86077 28714 ft 549 kts 68°
2026-05-04 18:39 37.31244 -96.76936 28728 ft 547 kts 68°
2026-05-04 18:39 37.33499 -96.67812 28714 ft 544 kts 68°
2026-05-04 18:40 37.35734 -96.58733 28719 ft 543 kts 68°
2026-05-04 18:40 37.37958 -96.49676 28720 ft 542 kts 68°
2026-05-04 18:41 37.40156 -96.40683 28729 ft 541 kts 69°
2026-05-04 18:41 37.42355 -96.31659 28732 ft 539 kts 69°
2026-05-04 18:42 37.44545 -96.22633 28722 ft 538 kts 69°
2026-05-04 18:42 37.46722 -96.13625 28726 ft 538 kts 69°
2026-05-04 18:43 37.48896 -96.04602 28736 ft 537 kts 69°
2026-05-04 18:43 37.51088 -95.95607 28727 ft 537 kts 68°
2026-05-04 18:44 37.53395 -95.86732 28725 ft 536 kts 67°
2026-05-04 18:44 37.55739 -95.77807 28730 ft 536 kts 68°
2026-05-04 18:45 37.58056 -95.68869 28763 ft 536 kts 68°
2026-05-04 18:45 37.60351 -95.59926 28772 ft 536 kts 68°
2026-05-04 18:46 37.62638 -95.50966 28759 ft 535 kts 68°
2026-05-04 18:46 37.64904 -95.42063 28768 ft 535 kts 68°
2026-05-04 18:47 37.67172 -95.33126 28784 ft 534 kts 68°
2026-05-04 18:47 37.69436 -95.24176 28749 ft 535 kts 68°
2026-05-04 18:48 37.71691 -95.15226 28761 ft 535 kts 68°
2026-05-04 18:48 37.73926 -95.06325 28733 ft 534 kts 69°
2026-05-04 18:49 37.76168 -94.97362 28727 ft 535 kts 69°
2026-05-04 18:49 37.78408 -94.88378 28736 ft 534 kts 69°
2026-05-04 18:50 37.80622 -94.79462 28740 ft 534 kts 69°
2026-05-04 18:50 37.82837 -94.70507 28744 ft 533 kts 69°
2026-05-04 18:51 37.85047 -94.61543 28742 ft 533 kts 69°
2026-05-04 18:51 37.87251 -94.52575 28763 ft 533 kts 69°
2026-05-04 18:52 37.89445 -94.43608 28741 ft 532 kts 69°
2026-05-04 18:52 37.91615 -94.34706 28740 ft 531 kts 69°
2026-05-04 18:53 37.93792 -94.25744 28736 ft 531 kts 69°
2026-05-04 18:53 37.95946 -94.16845 28750 ft 531 kts 69°
2026-05-04 18:54 37.98103 -94.07899 28724 ft 531 kts 70°
2026-05-04 18:54 38.00255 -93.98957 28738 ft 530 kts 69°
2026-05-04 18:55 38.02535 -93.90070 28740 ft 529 kts 68°
2026-05-04 18:55 38.06064 -93.76776 28736 ft 529 kts 68°
2026-05-04 18:56 38.08388 -93.67893 28741 ft 529 kts 68°
2026-05-04 18:56 38.10674 -93.59067 28736 ft 530 kts 68°
2026-05-04 18:57 38.12969 -93.50163 28744 ft 530 kts 68°
2026-05-04 18:57 38.15258 -93.41255 28750 ft 531 kts 68°
2026-05-04 18:58 38.17547 -93.32323 28763 ft 532 kts 68°
2026-05-04 18:58 38.19830 -93.23378 28753 ft 532 kts 68°
2026-05-04 18:59 38.22100 -93.14457 28751 ft 532 kts 68°
2026-05-04 18:59 38.24371 -93.05496 28744 ft 532 kts 68°
2026-05-04 19:00 38.26635 -92.96514 28729 ft 532 kts 68°
2026-05-04 19:00 38.28885 -92.87581 28725 ft 532 kts 69°
2026-05-04 19:01 38.31140 -92.78593 28715 ft 533 kts 69°
2026-05-04 19:01 38.33392 -92.69576 28720 ft 533 kts 69°
2026-05-04 19:02 38.35634 -92.60566 28727 ft 534 kts 68°
2026-05-04 19:02 38.37875 -92.51531 28719 ft 534 kts 69°
2026-05-04 19:03 38.40095 -92.42541 28723 ft 535 kts 69°
2026-05-04 19:03 38.42322 -92.33491 28727 ft 535 kts 69°
2026-05-04 19:04 38.44542 -92.24437 28717 ft 535 kts 69°
2026-05-04 19:04 38.46759 -92.15361 28733 ft 535 kts 69°
2026-05-04 19:05 38.48968 -92.06282 28728 ft 536 kts 69°
2026-05-04 19:05 38.51175 -91.97177 28732 ft 536 kts 69°
2026-05-04 19:06 38.53378 -91.88061 28733 ft 537 kts 69°
2026-05-04 19:06 38.55572 -91.78938 28730 ft 537 kts 70°
2026-05-04 19:07 38.57759 -91.69810 28722 ft 537 kts 70°
2026-05-04 19:07 38.59941 -91.60669 28724 ft 537 kts 70°
2026-05-04 19:08 38.62104 -91.51572 28732 ft 537 kts 70°
2026-05-04 19:08 38.64272 -91.42418 28738 ft 537 kts 70°
2026-05-04 19:09 38.66431 -91.33273 28735 ft 537 kts 71°
2026-05-04 19:09 38.68575 -91.24144 28732 ft 535 kts 71°
2026-05-04 19:10 38.70700 -91.15071 28731 ft 534 kts 71°
2026-05-04 19:10 38.72825 -91.05960 28738 ft 534 kts 71°
2026-05-04 19:11 38.74944 -90.96837 28736 ft 535 kts 71°
2026-05-04 19:11 38.77062 -90.87683 28712 ft 536 kts 71°
2026-05-04 19:12 38.79878 -90.75457 28733 ft 537 kts 71°
2026-05-04 19:13 38.82331 -90.64751 28738 ft 539 kts 71°
2026-05-04 19:13 38.84086 -90.57062 28736 ft 540 kts 71°
2026-05-04 19:14 38.86257 -90.47835 28730 ft 539 kts 68°
2026-05-04 19:14 38.89245 -90.38993 29196 ft 538 kts 62°
2026-05-04 19:14 38.90804 -90.34677 29909 ft 529 kts 62°
2026-05-04 19:15 38.92339 -90.30415 30447 ft 523 kts 62°
2026-05-04 19:15 38.93856 -90.26173 30772 ft 522 kts 62°
2026-05-04 19:15 38.95371 -90.21904 30765 ft 526 kts 63°
2026-05-04 19:16 38.98367 -90.13382 30778 ft 524 kts 63°
2026-05-04 19:16 39.01344 -90.04846 30783 ft 522 kts 63°
2026-05-04 19:17 39.04315 -89.96309 30754 ft 522 kts 63°
2026-05-04 19:17 39.07278 -89.87778 30748 ft 522 kts 63°
2026-05-04 19:18 39.10225 -89.79272 30750 ft 524 kts 63°
2026-05-04 19:18 39.13188 -89.70692 30766 ft 524 kts 63°
2026-05-04 19:19 39.16144 -89.62107 30747 ft 524 kts 64°
2026-05-04 19:19 39.19092 -89.53518 30761 ft 523 kts 64°
2026-05-04 19:20 39.22034 -89.44921 30736 ft 523 kts 64°
2026-05-04 19:20 39.24964 -89.36335 30741 ft 522 kts 64°
2026-05-04 19:21 39.27860 -89.27824 30748 ft 520 kts 64°
2026-05-04 19:21 39.30767 -89.19253 30732 ft 521 kts 64°
2026-05-04 19:22 39.33670 -89.10672 30743 ft 522 kts 64°
2026-05-04 19:22 39.36572 -89.02069 30739 ft 523 kts 64°
2026-05-04 19:23 39.39451 -88.93501 30750 ft 522 kts 64°
2026-05-04 19:23 39.42334 -88.84900 30740 ft 521 kts 64°
2026-05-04 19:24 39.45206 -88.76302 30743 ft 520 kts 64°
2026-05-04 19:24 39.48070 -88.67706 30758 ft 519 kts 64°
2026-05-04 19:25 39.50925 -88.59112 30763 ft 519 kts 64°
2026-05-04 19:25 39.53772 -88.50514 30765 ft 520 kts 64°
2026-05-04 19:26 39.56616 -88.41900 30780 ft 520 kts 64°
2026-05-04 19:26 39.59437 -88.33327 30779 ft 520 kts 65°
2026-05-04 19:27 39.62270 -88.24692 30778 ft 519 kts 65°
2026-05-04 19:27 39.65092 -88.16066 30776 ft 518 kts 65°
2026-05-04 19:28 39.67901 -88.07451 30773 ft 518 kts 65°
2026-05-04 19:28 39.70708 -87.98817 30794 ft 520 kts 65°
2026-05-04 19:29 39.73492 -87.90225 30791 ft 519 kts 65°
2026-05-04 19:29 39.76285 -87.81581 30804 ft 518 kts 65°
2026-05-04 19:30 39.79075 -87.72918 30820 ft 518 kts 65°
2026-05-04 19:30 39.81855 -87.64260 30807 ft 519 kts 65°
2026-05-04 19:31 39.84640 -87.55562 30794 ft 521 kts 65°